• In Kazakhstan
  • List of Countries
  • For 7 days
  • Water Temperature
  • Satellite Maps
  • Weather Map
  • News
  • Weather Widgets
  • user-avatar
    Login

    Hourly Weather Eskişehir

    Today, 17 August, Thursday

    Time Temperature Precipitation Wind Pressure Humidity
    00:00 +19°C° 0 mm 2 mps 684 mmHg 89%
    01:00 +19°C° 0 mm 2 mps 684 mmHg 91%
    02:00 +18°C° 0 mm 2 mps 684 mmHg 94%
    03:00 +18°C° 0 mm 2 mps 684 mmHg 93%
    04:00 +18°C° 0 mm 2 mps 684 mmHg 93%
    05:00 +18°C° 0 mm 2 mps 684 mmHg 92%
    06:00 +19°C° 0 mm 2 mps 684 mmHg 87%
    07:00 +20°C° 0 mm 2 mps 684 mmHg 82%
    08:00 +21°C° 0 mm 2 mps 685 mmHg 77%
    09:00 +24°C° 0.1 mm 3 mps 685 mmHg 69%
    10:00 +26°C° 0.1 mm 3 mps 685 mmHg 60%
    11:00 +27°C° 0.1 mm 3 mps 685 mmHg 51%
    12:00 +28°C° 0.2 mm 4 mps 685 mmHg 48%
    13:00 +29°C° 0.2 mm 4 mps 685 mmHg 45%
    14:00 +30°C° 0.2 mm 5 mps 685 mmHg 42%
    15:00 +29°C° 0.2 mm 5 mps 685 mmHg 45%
    16:00 +28°C° 0.2 mm 5 mps 685 mmHg 48%
    17:00 +28°C° 0.2 mm 6 mps 685 mmHg 51%
    18:00 +26°C° 0.8 mm 5 mps 685 mmHg 58%
    19:00 +23°C° 0.8 mm 4 mps 685 mmHg 65%
    20:00 +22°C° 0.8 mm 4 mps 685 mmHg 72%
    21:00 +21°C° 0.8 mm 3 mps 685 mmHg 76%
    22:00 +20°C° 0.8 mm 3 mps 685 mmHg 80%
    23:00 +20°C° 0.8 mm 2 mps 686 mmHg 84%

    Tomorrow, 18 August, Friday

    Time Temperature Precipitation Wind Pressure Humidity
    00:00 +19°C° 0.2 mm 2 mps 686 mmHg 85%
    01:00 +19°C° 0.2 mm 2 mps 685 mmHg 87%
    02:00 +18°C° 0.2 mm 2 mps 685 mmHg 89%
    03:00 +18°C° 0 mm 2 mps 685 mmHg 89%
    04:00 +17°C° 0 mm 2 mps 685 mmHg 90%
    05:00 +17°C° 0 mm 2 mps 685 mmHg 91%
    06:00 +18°C° 0 mm 2 mps 686 mmHg 81%
    07:00 +20°C° 0 mm 2 mps 686 mmHg 71%
    08:00 +21°C° 0 mm 2 mps 687 mmHg 61%
    09:00 +24°C° 0 mm 3 mps 687 mmHg 54%
    10:00 +25°C° 0 mm 3 mps 687 mmHg 48%
    11:00 +27°C° 0 mm 3 mps 687 mmHg 42%
    12:00 +28°C° 0 mm 4 mps 687 mmHg 40%
    13:00 +29°C° 0 mm 4 mps 687 mmHg 38%
    14:00 +30°C° 0 mm 4 mps 687 mmHg 36%
    15:00 +29°C° 0 mm 5 mps 687 mmHg 39%
    16:00 +29°C° 0 mm 5 mps 687 mmHg 41%
    17:00 +28°C° 0 mm 5 mps 687 mmHg 44%
    18:00 +26°C° 0 mm 5 mps 687 mmHg 51%
    19:00 +23°C° 0 mm 4 mps 687 mmHg 59%
    20:00 +22°C° 0 mm 4 mps 687 mmHg 66%
    21:00 +21°C° 0 mm 3 mps 687 mmHg 70%
    22:00 +20°C° 0 mm 3 mps 687 mmHg 75%
    23:00 +19°C° 0 mm 2 mps 687 mmHg 79%

    Day after tomorrow, 19 August, Saturday

    Time Temperature Precipitation Wind Pressure Humidity
    00:00 +19°C° 0 mm 2 mps 687 mmHg 80%
    01:00 +18°C° 0 mm 2 mps 687 mmHg 82%
    02:00 +18°C° 0 mm 2 mps 686 mmHg 83%
    03:00 +18°C° 0 mm 1 mps 686 mmHg 84%
    04:00 +18°C° 0 mm 1 mps 686 mmHg 84%
    05:00 +18°C° 0 mm 1 mps 686 mmHg 84%
    06:00 +19°C° 0 mm 1 mps 687 mmHg 77%
    07:00 +19°C° 0 mm 2 mps 687 mmHg 70%
    08:00 +21°C° 0 mm 2 mps 687 mmHg 63%
    09:00 +24°C° 0 mm 2 mps 688 mmHg 56%
    10:00 +25°C° 0 mm 2 mps 688 mmHg 49%
    11:00 +27°C° 0 mm 3 mps 688 mmHg 42%
    12:00 +28°C° 0 mm 3 mps 688 mmHg 39%
    13:00 +29°C° 0 mm 3 mps 688 mmHg 37%
    14:00 +30°C° 0 mm 3 mps 688 mmHg 34%
    15:00 +29°C° 0 mm 4 mps 687 mmHg 36%
    16:00 +29°C° 0 mm 4 mps 687 mmHg 38%
    17:00 +29°C° 0 mm 5 mps 687 mmHg 39%
    18:00 +27°C° 0 mm 4 mps 687 mmHg 46%
    19:00 +25°C° 0 mm 3 mps 687 mmHg 53%
    20:00 +22°C° 0 mm 3 mps 687 mmHg 60%
    21:00 +23°C° 0 mm 2 mps 687 mmHg 63%
    22:00 +21°C° 0 mm 2 mps 687 mmHg 66%
    23:00 +20°C° 0 mm 2 mps 687 mmHg 69%

    20 August, Sunday

    Time Temperature Precipitation Wind Pressure Humidity
    00:00 +21°C° 0 mm 1 mps 687 mmHg 70%
    01:00 +20°C° 0 mm 1 mps 687 mmHg 71%
    02:00 +20°C° 0 mm 1 mps 687 mmHg 72%
    03:00 +19°C° 0 mm 1 mps 687 mmHg 72%
    04:00 +19°C° 0 mm 1 mps 687 mmHg 72%
    05:00 +19°C° 0 mm 1 mps 686 mmHg 72%
    06:00 +20°C° 0 mm 1 mps 687 mmHg 65%
    07:00 +22°C° 0 mm 1 mps 687 mmHg 57%
    08:00 +23°C° 0 mm 1 mps 688 mmHg 49%
    09:00 +25°C° 0 mm 1 mps 688 mmHg 44%
    10:00 +27°C° 0 mm 2 mps 688 mmHg 38%
    11:00 +29°C° 0 mm 2 mps 688 mmHg 32%
    12:00 +30°C° 0 mm 2 mps 688 mmHg 30%
    13:00 +30°C° 0 mm 2 mps 688 mmHg 29%
    14:00 +31°C° 0 mm 2 mps 688 mmHg 27%
    15:00 +31°C° 0 mm 3 mps 687 mmHg 28%
    16:00 +31°C° 0 mm 3 mps 687 mmHg 30%
    17:00 +30°C° 0 mm 4 mps 687 mmHg 31%
    18:00 +28°C° 0 mm 3 mps 687 mmHg 39%
    19:00 +27°C° 0 mm 3 mps 686 mmHg 46%
    20:00 +25°C° 0 mm 3 mps 686 mmHg 54%
    21:00 +24°C° 0 mm 2 mps 686 mmHg 60%
    22:00 +23°C° 0 mm 2 mps 686 mmHg 66%
    23:00 +21°C° 0 mm 2 mps 686 mmHg 72%

    21 August, Monday

    Time Temperature Precipitation Wind Pressure Humidity
    00:00 +22°C° 0 mm 1 mps 686 mmHg 75%
    01:00 +21°C° 0 mm 1 mps 685 mmHg 77%
    02:00 +21°C° 0 mm 1 mps 685 mmHg 80%
    03:00 +21°C° 0.2 mm 1 mps 685 mmHg 81%
    04:00 +20°C° 0.2 mm 1 mps 685 mmHg 81%
    05:00 +20°C° 0.2 mm 1 mps 685 mmHg 82%
    06:00 +21°C° 0.3 mm 1 mps 685 mmHg 75%
    07:00 +23°C° 0.3 mm 1 mps 685 mmHg 69%
    08:00 +24°C° 0.3 mm 2 mps 686 mmHg 62%
    09:00 +25°C° 0.4 mm 2 mps 686 mmHg 56%
    10:00 +26°C° 0.4 mm 2 mps 686 mmHg 50%
    11:00 +27°C° 0.4 mm 3 mps 686 mmHg 44%
    12:00 +28°C° 0.2 mm 3 mps 686 mmHg 42%
    13:00 +29°C° 0.2 mm 3 mps 686 mmHg 40%
    14:00 +29°C° 0.2 mm 3 mps 685 mmHg 38%
    15:00 +29°C° 0.1 mm 3 mps 685 mmHg 40%
    16:00 +28°C° 0.1 mm 4 mps 685 mmHg 42%
    17:00 +28°C° 0.1 mm 4 mps 685 mmHg 44%
    18:00 +26°C° 0 mm 4 mps 685 mmHg 50%
    19:00 +24°C° 0 mm 3 mps 685 mmHg 56%
    20:00 +22°C° 0 mm 3 mps 685 mmHg 62%
    21:00 +21°C° 0 mm 2 mps 685 mmHg 67%
    22:00 +20°C° 0 mm 2 mps 685 mmHg 72%
    23:00 +20°C° 0 mm 2 mps 686 mmHg 77%

    22 August, Tuesday

    Time Temperature Precipitation Wind Pressure Humidity
    00:00 +20°C° 0 mm 1 mps 685 mmHg 80%
    01:00 +19°C° 0 mm 1 mps 685 mmHg 84%
    02:00 +19°C° 0 mm 1 mps 685 mmHg 87%
    03:00 +18°C° 0 mm 1 mps 685 mmHg 89%
    04:00 +18°C° 0 mm 1 mps 685 mmHg 91%
    05:00 +18°C° 0 mm 1 mps 685 mmHg 92%
    06:00 +19°C° 0 mm 1 mps 686 mmHg 86%
    07:00 +20°C° 0 mm 1 mps 686 mmHg 79%
    08:00 +21°C° 0 mm 1 mps 686 mmHg 73%
    09:00 +21°C° 0.1 mm 2 mps 686 mmHg 65%
    10:00 +24°C° 0.1 mm 2 mps 687 mmHg 58%
    11:00 +25°C° 0.1 mm 3 mps 687 mmHg 50%
    12:00 +25°C° 0.5 mm 4 mps 687 mmHg 53%
    13:00 +25°C° 0.5 mm 4 mps 686 mmHg 55%
    14:00 +23°C° 0.5 mm 5 mps 686 mmHg 57%
    15:00 +22°C° 0.4 mm 5 mps 686 mmHg 62%
    16:00 +21°C° 0.4 mm 5 mps 686 mmHg 66%
    17:00 +20°C° 0.4 mm 5 mps 686 mmHg 70%
    18:00 +19°C° 0 mm 5 mps 686 mmHg 74%
    19:00 +18°C° 0 mm 4 mps 686 mmHg 77%
    20:00 +17°C° 0 mm 4 mps 687 mmHg 81%
    21:00 +16°C° 0 mm 3 mps 687 mmHg 84%
    22:00 +14°C° 0 mm 3 mps 687 mmHg 86%
    23:00 +14°C° 0 mm 2 mps 687 mmHg 89%
    Show more